Location: Civry
(47.2902°N, 4.6156°E)
Time: 21:18:00
(UTC+00:00)

STARLINK-1226 - Pass Details

Date: 09 April 2020
Orbit: 378 x 381 km, 53.0° (Epoch: 27 May)

Event Time Altitude Azimuth Distance (km) Brightness Sun altitude
Rises 19:47:39 0° 297° (WNW) 2,262 8.8 -14.2°
Reaches altitude 10° 19:49:43 10° 294° (WNW) 1,405 7.1 -14.5°
Maximum altitude 19:52:49 63° 213° (SSW) 431 3.0 -15.0°
Enters shadow 19:53:54 35° 145° (SE) 633 3.5 -15.1°
